Tracking 19817 objects as of 19-Aug-2019
HD Live streaming from Space Station
objects crossing your sky now

SL-12 DEB

Track SL-12 DEB now!
10-day predictions


NORAD ID: 43918
Int'l Code: 2010-007AP
Perigee: 365.5 km
Apogee: 20,596.7 km
Inclination: 65.0 °
Period: 362.9 minutes
Semi major axis: 16852 km
RCS: Unknown
Launch date: March 1, 2010
Source: Commonwealth of Independent States (former USSR) (CIS)
Launch site: TYURATAM MISSILE AND SPACE COMPLEX (TTMTR)

Note: This is SATELLITE DEBRIS
aabbcc
Your satellite tracking list
Your tracking list is empty




NASA's NSSDC Master Catalog

Two Line Element Set (TLE):
1 43918U 10007AP  19230.50388939 +.00001125 +00000-0 +82028-3 0  9995
2 43918 065.0453 024.4565 6002582 027.8443 354.2298 03.96845248016770
Source of the keplerian elements: AFSPC